Location: Newark
(13.6797°N, 8.5297°E)
Time: 02:25:01
(UTC+00:00)

Altair - Pass Details

Date: 28 January 2020
Orbit: 1502 x 1682 km, 47.2° (Epoch: 19 February)

Event Time Altitude Azimuth Distance (km) Brightness Sun altitude
Rises 06:24:29 0° 248° (WSW) 4,784 9.6 6.2°
Reaches altitude 10° 06:27:56 10° 257° (WSW) 3,826 9.1 7.0°
Maximum altitude 06:36:33 35° 319° (NW) 2,453 8.3 9.0°
Drops below altitude 10° 06:45:27 10° 21° (NNE) 3,927 9.7 11.0°
Sets 06:49:06 0° 31° (NNE) 4,924 10.3 11.8°
